#timestamp,LO_Frequency,Hit,StdDev 
1577523615.1,286046998.2,N
1577523635.9,286046998.5,N
1577523655.7,286047001.2,N
1577523675.5,286046998.1,N
1577523695.4,286047001.2,N
1577523715.2,286047000.7,N
1577523735.1,286046998.2,N
1577523736.0,286046998.2,N
1577523755.8,286046998.4,N
1577523775.6,286047000.6,N
1577523795.5,286047000.2,N
1577523815.3,286047001.1,N
1577523835.1,286047000.9,N
1577523855.9,286047004.4,Y
1577523875.7,286047004.2,P
1577523895.6,286047001.3,N
1577523915.4,286047001.5,N
1577523935.2,286047004.0,N
1577523955.1,286047004.2,N
1577523956.0,286047004.2,N
1577523975.8,286046999.8,N
1577523995.7,286047000.2,N
1577524015.5,286047000.2,N
1577524035.3,286047002.8,N
1577524055.2,286047001.2,N
1577524075.9,286047000.2,N
1577524095.7,286047002.5,N
1577524115.6,286047002.8,N
1577524135.4,286047002.7,N
1577524155.2,286046999.8,N
1577524175.1,286047000.2,N
1577524176.0,286047000.2,N
1577524195.8,286047002.1,N
1577524215.7,286047002.0,N
1577524235.5,286047002.7,N
1577524255.3,286047001.4,N
1577524275.2,286047001.6,N
1577524295.0,286047003.7,N
1577524295.9,286047003.7,N
1577524315.8,286047004.4,N
1577524335.6,286047001.7,N
1577524355.4,286047000.0,N
1577524375.3,286047003.9,N
1577524395.1,286047002.1,N
1577524415.8,286047001.6,N
1577524435.7,286047002.6,N
1577524455.5,286047002.1,N
1577524475.4,286047000.2,N
1577524495.2,286047000.7,N
1577524515.0,286047000.7,N
1577524515.9,286047000.7,N
1577524535.8,286047001.0,N
1577524555.6,286047001.2,N
1577524575.5,286046998.2,N
1577524595.3,286047001.1,N
1577524615.1,286047000.3,N
1577524635.9,286046998.1,N
1577524655.7,286047000.5,N
1577524675.5,286047000.8,N
1577524695.4,286047001.2,N
1577524715.2,286047000.8,N
1577524735.1,286047002.8,N
1577524736.0,286047002.8,N
1577524755.8,286047002.4,N
1577524775.6,286047001.3,N
1577524825.5,286047004.3,E
1577524835.4,286047000.3,N
1577524855.3,286046996.7,P
1577524875.1,286046999.6,N
1577524895.8,286046999.4,N
1577524915.7,286046999.2,N
1577524935.5,286046999.6,N
1577524955.4,286046997.2,N
1577524975.2,286046996.5,N
1577524995.0,286046996.7,N
1577524995.9,286046996.7,N
1577525015.8,286046997.6,N
1577525035.6,286046997.5,N
1577525055.5,286046997.0,N
1577525075.3,286046996.7,N
1577525095.1,286046997.5,N
1577525115.9,286046997.2,N
1577525135.7,286046996.7,N
1577525155.5,286046996.9,N
1577525175.4,286046996.8,N
1577525195.2,286046997.7,N
1577525215.1,286046997.4,N
1577525216.0,286046997.4,N
1577525235.8,286046996.6,Y
1577525255.6,286046999.3,P
1577525275.5,286046999.6,N
1577525295.3,286046998.2,N
1577525315.1,286046998.7,N
1577525335.9,286046999.1,N
1577525355.7,286046999.6,N
1577525375.6,286046998.9,N
1577525395.4,286046998.9,N
1577525415.2,286046996.5,Y
1577525435.1,286047000.5,P
1577525436.0,286047000.5,N
1577525455.8,286047000.0,N
1577525475.6,286047002.3,Y
1577525495.5,286047000.4,P
1577525515.3,286047002.6,P
1577525535.2,286047002.3,N
1577525555.9,286047001.3,N
1577525575.7,286047001.8,N
1577525595.6,286047001.7,N
1577525615.4,286047002.5,N
1577525635.2,286047000.1,N
1577525655.1,286047000.3,N
1577525656.0,286047000.3,N
1577525675.8,286046998.3,N
1577525695.7,286046998.7,N
1577525715.5,286047001.1,N
1577525735.3,286046998.3,N
1577525755.2,286047001.2,N
1577525775.0,286047001.1,N
1577525775.9,286047001.1,N
1577525795.7,286047001.1,N
1577525815.6,286047000.7,N
1577525835.4,286047002.4,N
1577525855.3,286047001.8,N
1577525875.1,286047002.3,N
1577525876.0,286047002.3,N
1577525895.8,286047000.4,N
1577525915.7,286047001.0,N
1577525935.5,286047000.0,N
1577525955.3,286046998.3,N
1577525975.2,286046998.6,N
1577525995.0,286046998.2,N
1577525995.9,286046998.2,N
1577526015.8,286046999.1,N
1577526035.6,286047001.0,N
1577526055.4,286046998.5,N
1577526075.3,286046998.4,N
1577526095.1,286046998.3,N
1577526115.8,286047000.8,N
1577526135.7,286047003.1,N
1577526155.5,286047001.3,N
1577526175.4,286047002.2,N
1577526195.2,286047002.4,N
1577526215.0,286047000.7,N
1577526215.9,286047000.7,N
1577526235.8,286047002.4,N
1577526255.6,286046999.7,N
1577526275.4,286047000.0,N
1577526295.3,286047001.2,N
1577526315.1,286046999.9,N
1577526335.9,286047000.5,N
1577526355.7,286046999.9,N
1577526375.5,286047002.0,N
1577526395.4,286046998.6,N
1577526415.2,286046998.9,N
1577526435.0,286046999.0,N
1577526435.9,286046999.0,N
1577526455.8,286047000.8,N
1577526475.6,286047001.0,N
1577526495.4,286046999.8,N
1577526515.3,286047002.8,N
1577526535.1,286047002.8,N
1577526555.9,286047000.6,N
1577526575.7,286047000.1,N
1577526595.5,286047002.4,N
1577526615.4,286047000.9,N
1577526635.2,286047000.7,N
1577526655.0,286046999.9,N
1577526655.9,286046999.9,N
1577526675.8,286047000.5,N
1577526695.6,286047000.9,N
1577526715.5,286047002.1,N
1577526735.3,286047003.8,Y
1577526755.1,286047001.9,P
1577526775.9,286047001.8,N
1577526795.7,286047004.3,P
1577526815.5,286047001.5,N
1577526835.4,286047002.0,N
1577526855.2,286046999.9,N
1577526875.1,286046999.8,N
1577526876.0,286046999.8,N
1577526895.8,286047004.4,Y
1577526915.6,286047000.0,P
1577526935.5,286046999.7,N
1577526955.3,286047002.1,N
1577526975.1,286047002.5,N
1577526995.9,286047001.9,N
1577527015.7,286047001.3,N
1577527035.6,286047001.9,N
1577527055.4,286047002.3,N
1577527075.2,286047004.2,Y
1577527095.1,286047000.6,P
1577527096.0,286047000.6,N
1577527115.8,286047002.6,P
1577527135.7,286047000.0,N
1577527155.5,286046998.1,N
1577527175.3,286046999.3,N
1577527195.2,286047000.5,N
